Weather in Burevestnik

Russia / Nizhny Novgorod Oblast'     56°08′51″N   43°47′11″E
temp.,
°C
wind,
m/s
gust,
m/s
humid.,
%
clouds,
%
prec.,
mm/h
press.,
hPa
HPBL,
m
12 may, wed
wed1200:00+14e229470 0.6 102723
03:00+12e119645 0.6 102711
06:00+14ne27916 0.0 1027190
09:00+19ene587049 0.1 1026555
12:00+23e57515 0.0 10251353
15:00+24ese594428 0.0 10242701
18:00+21se385545 0.0 10231159
21:00+18sse51259100 0.1 1024638
13 may, thu
thu1300:00+16se396483 0.0 1024313
03:00+15se37755 0.0 1024210
06:00+15ese27781 0.0 1024228
09:00+20ese59623 0.0 1023842
12:00+23ese695033 0.0 10211146
15:00+17ese61381100 0.7 1020739
18:00+16ese51281100 0.3 1019812
21:00+15ese51391100 2.6 1017459
14 may, fri
fri1400:00+14s279623 0.6 1018184
03:00+13ssw239730 0.6 101976
06:00+14s23920 0.0 1020121
09:00+19s3575100 0.0 1020634
12:00+22ssw3455100 0.0 10201296
15:00+23s344862 0.0 10191628
18:00+22se356352 0.1 1018555
21:00+18ese238033 0.4 101754
15 may, sat
sat1500:00+16sse2689100 0.5 1016141
03:00+16sse2289100 0.8 101646
06:00+17se2687100 0.0 1015175
09:00+22sse4668100 0.0 1015460
12:00+26sse694730 0.0 10141067
15:00+26s712475 0.0 10131116
18:00+23s7155283 0.0 10121157
21:00+19s41172100 0.0 1013402
16 may, sun
sun1600:00+18s41275100 0.0 1012362
03:00+17ssw31280100 0.0 1014398
06:00+17ssw4118198 0.0 1014469
09:00+21sw476981 0.0 1014788
12:00+23wsw57523 0.0 10141427
15:00+24wsw58483 0.0 10141650
18:00+23wsw37550 0.0 10141180
21:00+18wsw25700 0.0 1016149